DECAYED

DMSP 5D-2 F13 DEB, 42293 (Decayed)

Orbit data source: Space-Track

DMSP 5D-2 F13 DEB, 42293 was space debris in SSO originally from a launch on Fri, 24 Mar 1995 UTC launched from the Air Force Western Test Range (AFWTR). Debris objects in space refer to the collection of defunct objects orbiting the Earth. Examples of debris include non-operational satellites, rocket bodies, and fragments generated from explosions, collisions, or faulty payload assembly.

Not visible in the next 10 days
Identifier
42293, 1995-015HK
Orbit
Decayed
Country
Flag of USUS
Related business
Manufacturer
Unknown
Mission
Decayed spacecraft
Bus & Motor
Unknown
Mass
Unknown
Launch date (UTC)
1995-03-24 (31 years ago)
Launch vehicle
Unknown
Launch site
Air Force Western Test Range (AFWTR)
Object type
Payload
Rocket body
Debris
Shape & HBR
Unknown shape, 0.1 m
Radar Cross Section
Small (<0.1 m²)

Expand to show TLE details & history
Last TLE update: 2 months ago

TLE from 2 months ago
0 DMSP 5D-2 F13 DEB
1 42293U 95015HK  25238.80891623  .00683195  00000-0  16762-1 0  9992
2 42293  98.6887 338.8201 0020891 264.1607  95.7253 15.38194955519555
Epoch: 2025-08-26T19:24Z
TLE epoch observation values (Epoch: 2025-08-26T19:24:50.362Z)
Latitude
0.00004°
Longitude
72.31495°
Altitude
455.975 km
Speed
7.638 km/s
True Right ascension
22h 35m 16s
True Declination
0° 00' 00"
Sunlit
Object was in full shadow at epoch
Visualization orbit readout
Latitude
Unknown
Longitude
Unknown
Altitude
Unknown
Speed
Unknown
Apparent Right ascension
Unknown
Apparent Declination
Unknown
Sunlit
N/A
Visualization observer readout
Local Sidereal Time
18:25:35
Azimuth
Unknown
Elevation
Unknown
Doppler factor
Unknown
Orbital elements
Apogee altitude
462.71 km
Perigee altitude
434.187 km
Semi-major axis
6,826.586 km
Eccentricity
0.00209
Inclination
98.6887°
RAAN
338.8201°
Arg. of periapsis
264.1607°
True anomaly
95.96344°
Mean anomaly
95.7253°
Eccentric anomaly
95.84437°
Mean motion
3.84802 °/min
Orbital period
93.55 mins
BSTAR
0.016762

Documentation

Showing up to 5 results
|